Time,TemperatureF,DewpointF,PressureIn,WindDirection,WindDirectionDegrees,WindSpeedMPH,WindSpeedGustMPH,Humidity,HourlyPrecipIn,Conditions,Clouds,dailyrainin,SoftwareType,DateUTC
2013-12-20 00:00:00,0.6,-7.5,29.81,NNE,29,0.0,1.0,68,0.00,,---,0.00,VWS V13.01,2013-12-20 07:00:00,
2013-12-20 00:05:00,0.5,-7.6,29.82,SE,136,0.0,2.0,68,0.00,,---,0.00,VWS V13.01,2013-12-20 07:05:00,
2013-12-20 00:10:00,0.3,-7.8,29.81,SE,142,1.0,2.0,68,0.00,,---,0.00,VWS V13.01,2013-12-20 07:10:00,
2013-12-20 00:15:00,0.2,-7.8,29.80,SSE,165,1.0,2.0,68,0.00,,---,0.00,VWS V13.01,2013-12-20 07:15:00,
2013-12-20 00:20:00,0.1,-8.0,29.80,SSE,162,1.0,2.0,68,0.00,,---,0.00,VWS V13.01,2013-12-20 07:20:00,
2013-12-20 00:25:00,-0.2,-8.5,29.80,SSE,162,2.0,2.0,67,0.00,,---,0.00,VWS V13.01,2013-12-20 07:25:00,
2013-12-20 00:30:00,-1.0,-9.9,29.79,South,170,3.0,3.0,65,0.00,,---,0.00,VWS V13.01,2013-12-20 07:30:00,
2013-12-20 00:35:00,-1.2,-9.8,29.79,South,184,2.0,4.0,66,0.00,,---,0.00,VWS V13.01,2013-12-20 07:35:00,
2013-12-20 00:40:00,-1.3,-9.6,29.79,South,179,2.0,4.0,67,0.00,,---,0.00,VWS V13.01,2013-12-20 07:40:00,
2013-12-20 00:45:00,-1.3,-9.6,29.79,South,170,4.0,4.0,67,0.00,,---,0.00,VWS V13.01,2013-12-20 07:45:00,
2013-12-20 00:50:00,-1.2,-9.5,29.79,South,189,2.0,4.0,67,0.00,,---,0.00,VWS V13.01,2013-12-20 07:50:00,
2013-12-20 00:55:00,-1.1,-9.4,29.79,SSW,192,0.0,4.0,67,0.00,,---,0.00,VWS V13.01,2013-12-20 07:55:00,
2013-12-20 01:00:00,-1.1,-9.4,29.78,SSW,192,1.0,1.0,67,0.00,,---,0.00,VWS V13.01,2013-12-20 08:00:00,
2013-12-20 01:06:00,-1.3,-9.6,29.79,SSW,192,0.0,2.0,67,0.00,,---,0.00,VWS V13.01,2013-12-20 08:06:00,
2013-12-20 01:11:00,-1.4,-10.0,29.78,SSW,195,1.0,2.0,66,0.00,,---,0.00,VWS V13.01,2013-12-20 08:11:00,
2013-12-20 01:16:00,-1.3,-9.9,29.77,SSW,198,1.0,2.0,66,0.00,,---,0.00,VWS V13.01,2013-12-20 08:16:00,
2013-12-20 01:21:00,-1.3,-9.6,29.77,SSW,195,0.0,2.0,67,0.00,,---,0.00,VWS V13.01,2013-12-20 08:21:00,
2013-12-20 01:26:00,-0.8,-8.5,29.76,SSW,195,0.0,2.0,69,0.00,,---,0.00,VWS V13.01,2013-12-20 08:26:00,
2013-12-20 01:30:00,6.7,-1.3,29.74,SW,215,5.0,8.0,69,0.00,,---,0.00,VWS V15.00,2013-12-20 08:30:00,
2013-12-20 01:31:00,-0.4,-8.1,29.76,SSW,195,0.0,1.0,69,0.00,,---,0.00,VWS V13.01,2013-12-20 08:31:00,
2013-12-20 01:36:00,-0.1,-7.7,29.75,SSW,195,0.0,2.0,69,0.00,,---,0.00,VWS V13.01,2013-12-20 08:36:00,
2013-12-20 01:41:00,0.3,-7.4,29.75,SSW,195,0.0,2.0,69,0.00,,---,0.00,VWS V13.01,2013-12-20 08:41:00,
2013-12-20 01:46:00,0.7,-7.1,29.76,SSW,197,2.0,5.0,69,0.00,,---,0.00,VWS V13.01,2013-12-20 08:46:00,
2013-12-20 01:51:00,1.1,-6.4,29.75,South,172,2.0,5.0,70,0.00,,---,0.00,VWS V13.01,2013-12-20 08:51:00,
2013-12-20 01:56:00,1.8,-5.4,29.75,South,170,0.0,5.0,71,0.00,,---,0.00,VWS V13.01,2013-12-20 08:56:00,
2013-12-20 02:00:00,5.4,-4.8,29.74,North,357,0.0,7.0,62,0.00,,---,0.00,VWS V15.00,2013-12-20 09:00:00,
2013-12-20 02:01:00,3.5,-3.2,29.75,SSW,210,3.0,5.0,73,0.00,,---,0.00,VWS V13.01,2013-12-20 09:01:00,
2013-12-20 02:06:00,4.4,-2.9,29.75,SSE,148,2.0,5.0,71,0.00,,---,0.00,VWS V13.01,2013-12-20 09:06:00,
2013-12-20 02:11:00,4.2,-4.0,29.75,SSE,148,0.0,5.0,68,0.00,,---,0.00,VWS V13.01,2013-12-20 09:11:00,
2013-12-20 02:16:00,4.4,-3.5,29.75,ESE,118,1.0,5.0,69,0.00,,---,0.00,VWS V13.01,2013-12-20 09:16:00,
2013-12-20 02:21:00,5.1,-2.5,29.74,ESE,119,0.0,5.0,70,0.00,,---,0.00,VWS V13.01,2013-12-20 09:21:00,
2013-12-20 02:26:00,5.9,-1.8,29.74,SSW,213,3.0,6.0,70,0.00,,---,0.00,VWS V13.01,2013-12-20 09:26:00,
2013-12-20 02:30:00,7.0,-1.0,29.72,SSE,156,3.0,4.0,69,0.00,,---,0.00,VWS V15.00,2013-12-20 09:30:00,
2013-12-20 02:32:00,7.3,-0.7,29.75,South,189,0.0,5.0,69,0.00,,---,0.00,VWS V13.01,2013-12-20 09:32:00,
2013-12-20 02:37:00,8.0,-0.4,29.75,West,260,2.0,5.0,68,0.00,,---,0.00,VWS V13.01,2013-12-20 09:37:00,
2013-12-20 02:42:00,7.5,-2.1,29.75,North,352,2.0,7.0,64,0.00,,---,0.00,VWS V13.01,2013-12-20 09:42:00,
2013-12-20 02:47:00,6.7,-3.5,29.74,North,357,0.0,7.0,62,0.00,,---,0.00,VWS V13.01,2013-12-20 09:47:00,
2013-12-20 02:52:00,6.2,-4.0,29.75,North,357,0.0,7.0,62,0.00,,---,0.00,VWS V13.01,2013-12-20 09:52:00,
2013-12-20 02:57:00,5.6,-4.6,29.75,North,357,0.0,7.0,62,0.00,,---,0.00,VWS V13.01,2013-12-20 09:57:00,
2013-12-20 03:00:00,10.2,0.1,29.71,SSE,167,0.0,5.0,63,0.00,,---,0.00,VWS V15.00,2013-12-20 10:00:00,
2013-12-20 03:02:00,5.2,-5.0,29.74,North,357,0.0,0.0,62,0.00,,---,0.00,VWS V13.01,2013-12-20 10:02:00,
2013-12-20 03:07:00,4.9,-5.2,29.74,North,357,1.0,1.0,62,0.00,,---,0.00,VWS V13.01,2013-12-20 10:07:00,
2013-12-20 03:12:00,4.5,-5.6,29.73,North,357,0.0,1.0,62,0.00,,---,0.00,VWS V13.01,2013-12-20 10:12:00,
2013-12-20 03:17:00,4.4,-5.4,29.73,North,5,0.0,2.0,63,0.00,,---,0.00,VWS V13.01,2013-12-20 10:17:00,
2013-12-20 03:22:00,5.0,-3.9,29.73,ESE,117,2.0,3.0,66,0.00,,---,0.00,VWS V13.01,2013-12-20 10:22:00,
2013-12-20 03:27:00,6.3,-2.0,29.72,South,169,2.0,4.0,68,0.00,,---,0.00,VWS V13.01,2013-12-20 10:27:00,
2013-12-20 03:30:00,6.5,-3.7,29.69,NNW,341,0.0,5.0,62,0.00,,---,0.00,VWS V15.00,2013-12-20 10:30:00,
2013-12-20 03:32:00,7.8,-0.2,29.72,SSW,200,3.0,5.0,69,0.00,,---,0.00,VWS V13.01,2013-12-20 10:32:00,
2013-12-20 03:37:00,8.8,0.4,29.72,South,172,4.0,5.0,68,0.00,,---,0.00,VWS V13.01,2013-12-20 10:37:00,
2013-12-20 03:42:00,9.8,1.0,29.71,SSE,165,3.0,5.0,67,0.00,,---,0.00,VWS V13.01,2013-12-20 10:42:00,
2013-12-20 03:47:00,10.3,1.2,29.71,SSE,168,2.0,5.0,66,0.00,,---,0.00,VWS V13.01,2013-12-20 10:47:00,
2013-12-20 03:53:00,10.5,1.4,29.71,SSE,167,0.0,5.0,66,0.00,,---,0.00,VWS V13.01,2013-12-20 10:53:00,
2013-12-20 03:58:00,10.3,0.6,29.71,SSE,167,0.0,5.0,64,0.00,,---,0.00,VWS V13.01,2013-12-20 10:58:00,
2013-12-20 04:00:00,6.2,-4.0,29.69,North,0,4.0,5.0,62,0.00,,---,0.00,VWS V15.00,2013-12-20 11:00:00,
2013-12-20 04:03:00,9.7,-0.3,29.71,SSE,161,0.0,2.0,63,0.00,,---,0.00,VWS V13.01,2013-12-20 11:03:00,
2013-12-20 04:08:00,9.5,0.1,29.70,South,184,0.0,5.0,65,0.00,,---,0.00,VWS V13.01,2013-12-20 11:08:00,
2013-12-20 04:13:00,9.9,0.8,29.70,SW,228,1.0,5.0,66,0.00,,---,0.00,VWS V13.01,2013-12-20 11:13:00,
2013-12-20 04:18:00,9.6,-0.8,29.70,NNW,339,0.0,5.0,62,0.00,,---,0.00,VWS V13.01,2013-12-20 11:18:00,
2013-12-20 04:23:00,7.9,-3.4,29.70,NNW,341,0.0,5.0,59,0.00,,---,0.00,VWS V13.01,2013-12-20 11:23:00,
2013-12-20 04:28:00,6.7,-3.5,29.69,NNW,341,0.0,5.0,62,0.00,,---,0.00,VWS V13.01,2013-12-20 11:28:00,
2013-12-20 04:30:00,1.9,-7.1,29.69,NNW,342,0.0,7.0,65,0.00,,---,0.00,VWS V15.00,2013-12-20 11:30:00,
2013-12-20 04:33:00,6.1,-3.8,29.70,NNW,341,0.0,0.0,63,0.00,,---,0.00,VWS V13.01,2013-12-20 11:33:00,
2013-12-20 04:38:00,5.7,-3.8,29.69,East,87,2.0,4.0,64,0.00,,---,0.00,VWS V13.01,2013-12-20 11:38:00,
2013-12-20 04:43:00,6.8,-1.2,29.69,West,266,2.0,4.0,69,0.00,,---,0.00,VWS V13.01,2013-12-20 11:43:00,
2013-12-20 04:48:00,6.6,-2.7,29.68,SSE,164,0.0,4.0,65,0.00,,---,0.00,VWS V13.01,2013-12-20 11:48:00,
2013-12-20 04:53:00,7.0,-2.0,29.68,West,278,0.0,4.0,66,0.00,,---,0.00,VWS V13.01,2013-12-20 11:53:00,
2013-12-20 04:58:00,6.4,-3.8,29.69,North,0,3.0,5.0,62,0.00,,---,0.00,VWS V13.01,2013-12-20 11:58:00,
2013-12-20 05:00:00,0.8,-7.9,29.69,NNW,342,0.0,3.0,66,0.00,,---,0.00,VWS V15.00,2013-12-20 12:00:00,
2013-12-20 05:03:00,4.9,-5.6,29.68,North,349,2.0,5.0,61,0.00,,---,0.00,VWS V13.01,2013-12-20 12:03:00,
2013-12-20 05:08:00,3.9,-5.9,29.69,NNW,334,3.0,5.0,63,0.00,,---,0.00,VWS V13.01,2013-12-20 12:08:00,
2013-12-20 05:14:00,3.1,-6.6,29.68,NNW,329,6.0,6.0,63,0.00,,---,0.00,VWS V13.01,2013-12-20 12:14:00,
2013-12-20 05:19:00,2.3,-7.7,29.68,NW,326,3.0,7.0,62,0.00,,---,0.00,VWS V13.01,2013-12-20 12:19:00,
2013-12-20 05:24:00,2.0,-7.4,29.69,NNW,340,0.0,7.0,64,0.00,,---,0.00,VWS V13.01,2013-12-20 12:24:00,
2013-12-20 05:29:00,1.8,-7.2,29.69,NNW,342,0.0,7.0,65,0.00,,---,0.00,VWS V13.01,2013-12-20 12:29:00,
2013-12-20 05:30:00,-0.7,-9.6,29.69,NNW,342,0.0,0.0,65,0.00,,---,0.00,VWS V15.00,2013-12-20 12:30:00,
2013-12-20 05:34:00,1.8,-7.2,29.69,NNW,342,0.0,0.0,65,0.00,,---,0.00,VWS V13.01,2013-12-20 12:34:00,
2013-12-20 05:39:00,1.8,-7.2,29.69,NNW,342,0.0,0.0,65,0.00,,---,0.00,VWS V13.01,2013-12-20 12:39:00,
2013-12-20 05:44:00,1.7,-7.3,29.68,NNW,342,0.0,1.0,65,0.00,,---,0.00,VWS V13.01,2013-12-20 12:44:00,
2013-12-20 05:49:00,1.6,-7.1,29.69,NNW,342,0.0,2.0,66,0.00,,---,0.00,VWS V13.01,2013-12-20 12:49:00,
2013-12-20 05:54:00,1.1,-7.9,29.69,NNW,342,0.0,3.0,65,0.00,,---,0.00,VWS V13.01,2013-12-20 12:54:00,
2013-12-20 05:59:00,0.8,-7.9,29.69,NNW,342,0.0,0.0,66,0.00,,---,0.00,VWS V13.01,2013-12-20 12:59:00,
2013-12-20 06:00:00,-2.7,-10.9,29.68,SE,124,2.0,4.0,67,0.00,,---,0.00,VWS V15.00,2013-12-20 13:00:00,
2013-12-20 06:04:00,0.5,-8.5,29.69,NNW,342,0.0,0.0,65,0.00,,---,0.00,VWS V13.01,2013-12-20 13:04:00,
2013-12-20 06:09:00,0.3,-8.7,29.69,NNW,342,0.0,0.0,65,0.00,,---,0.00,VWS V13.01,2013-12-20 13:09:00,
2013-12-20 06:14:00,0.1,-9.0,29.68,NNW,342,0.0,0.0,65,0.00,,---,0.00,VWS V13.01,2013-12-20 13:14:00,
2013-12-20 06:19:00,-0.2,-9.1,29.69,NNW,342,0.0,0.0,65,0.00,,---,0.00,VWS V13.01,2013-12-20 13:19:00,
2013-12-20 06:24:00,-0.4,-9.3,29.68,NNW,342,0.0,0.0,65,0.00,,---,0.00,VWS V13.01,2013-12-20 13:24:00,
2013-12-20 06:29:00,-0.8,-9.7,29.69,NNW,342,0.0,0.0,65,0.00,,---,0.00,VWS V13.01,2013-12-20 13:29:00,
2013-12-20 06:30:00,-1.7,-9.4,29.67,North,357,0.0,4.0,69,0.00,,---,0.00,VWS V15.00,2013-12-20 13:30:00,
2013-12-20 06:35:00,-1.2,-9.8,29.69,NNW,342,0.0,3.0,66,0.00,,---,0.00,VWS V13.01,2013-12-20 13:35:00,
2013-12-20 06:40:00,-1.8,-10.7,29.68,SSW,194,0.0,3.0,65,0.00,,---,0.00,VWS V13.01,2013-12-20 13:40:00,
2013-12-20 06:45:00,-2.3,-11.5,29.68,SSW,192,0.0,3.0,64,0.00,,---,0.00,VWS V13.01,2013-12-20 13:45:00,
2013-12-20 06:50:00,-2.5,-11.0,29.68,SSW,192,1.0,3.0,66,0.00,,---,0.00,VWS V13.01,2013-12-20 13:50:00,
2013-12-20 06:55:00,-2.5,-10.7,29.68,SSW,192,0.0,3.0,67,0.00,,---,0.00,VWS V13.01,2013-12-20 13:55:00,
2013-12-20 07:00:00,-2.7,-10.9,29.68,SE,124,2.0,4.0,67,0.00,,---,0.00,VWS V13.01,2013-12-20 14:00:00,
2013-12-20 07:05:00,-2.3,-9.9,29.67,ESE,117,0.0,4.0,69,0.00,,---,0.00,VWS V13.01,2013-12-20 14:05:00,
2013-12-20 07:10:00,-2.0,-9.4,29.68,NW,313,1.0,4.0,70,0.00,,---,0.00,VWS V13.01,2013-12-20 14:10:00,
2013-12-20 07:15:00,-1.9,-9.6,29.68,NW,312,0.0,4.0,69,0.00,,---,0.00,VWS V13.01,2013-12-20 14:15:00,
2013-12-20 07:20:00,-1.9,-9.9,29.67,NNW,332,1.0,4.0,68,0.00,,---,0.00,VWS V13.01,2013-12-20 14:20:00,
2013-12-20 07:25:00,-1.8,-9.5,29.67,North,355,1.0,4.0,69,0.00,,---,0.00,VWS V13.01,2013-12-20 14:25:00,
2013-12-20 07:30:00,-1.7,-9.4,29.67,North,357,0.0,0.0,69,0.00,,---,0.00,VWS V13.01,2013-12-20 14:30:00,
2013-12-20 07:35:00,-1.7,-9.4,29.68,North,357,0.0,0.0,69,0.00,,---,0.00,VWS V13.01,2013-12-20 14:35:00,
2013-12-20 07:40:00,-1.7,-9.4,29.67,North,356,0.0,2.0,69,0.00,,---,0.00,VWS V13.01,2013-12-20 14:40:00,
2013-12-20 07:45:00,-1.7,-9.4,29.68,North,356,0.0,2.0,69,0.00,,---,0.00,VWS V13.01,2013-12-20 14:45:00,
2013-12-20 07:50:00,-1.6,-9.3,29.68,North,356,0.0,2.0,69,0.00,,---,0.00,VWS V13.01,2013-12-20 14:50:00,
2013-12-20 07:56:00,-1.8,-9.5,29.68,North,357,0.0,2.0,69,0.00,,---,0.00,VWS V13.01,2013-12-20 14:56:00,
2013-12-20 08:00:00,13.2,6.2,29.66,WNW,294,9.0,18.0,73,0.00,,---,0.00,VWS V15.00,2013-12-20 15:00:00,
2013-12-20 08:01:00,-2.1,-10.1,29.67,North,0,0.0,1.0,68,0.00,,---,0.00,VWS V13.01,2013-12-20 15:01:00,
2013-12-20 08:06:00,-2.3,-10.2,29.68,North,0,0.0,3.0,68,0.00,,---,0.00,VWS V13.01,2013-12-20 15:06:00,
2013-12-20 08:11:00,-2.0,-9.7,29.67,North,0,0.0,3.0,69,0.00,,---,0.00,VWS V13.01,2013-12-20 15:11:00,
2013-12-20 08:16:00,-1.5,-8.9,29.67,NNW,331,0.0,4.0,70,0.00,,---,0.00,VWS V13.01,2013-12-20 15:16:00,
2013-12-20 08:21:00,-1.3,-8.7,29.67,NNE,29,0.0,4.0,70,0.00,,---,0.00,VWS V13.01,2013-12-20 15:21:00,
2013-12-20 08:26:00,-0.6,-7.7,29.68,North,5,2.0,5.0,71,0.00,,---,0.00,VWS V13.01,2013-12-20 15:26:00,
2013-12-20 08:30:00,21.3,7.7,29.66,West,262,7.0,23.0,55,0.00,,---,0.00,VWS V15.00,2013-12-20 15:30:00,
2013-12-20 08:31:00,0.4,-6.5,29.67,North,0,0.0,4.0,72,0.00,,---,0.00,VWS V13.01,2013-12-20 15:31:00,
2013-12-20 08:36:00,1.5,-5.1,29.67,North,354,2.0,8.0,73,0.00,,---,0.00,VWS V13.01,2013-12-20 15:36:00,
2013-12-20 08:41:00,2.8,-4.4,29.67,NNE,25,1.0,8.0,71,0.00,,---,0.00,VWS V13.01,2013-12-20 15:41:00,
2013-12-20 08:46:00,2.4,-5.7,29.67,ENE,62,0.0,8.0,68,0.00,,---,0.00,VWS V13.01,2013-12-20 15:46:00,
2013-12-20 08:51:00,4.1,-2.3,29.66,WNW,284,10.0,13.0,74,0.00,,---,0.00,VWS V13.01,2013-12-20 15:51:00,
2013-12-20 08:56:00,10.3,4.5,29.66,WNW,291,5.0,18.0,77,0.00,,---,0.00,VWS V13.01,2013-12-20 15:56:00,
2013-12-20 09:00:00,22.7,7.7,29.64,WSW,246,12.0,19.0,52,0.00,,---,0.00,VWS V15.00,2013-12-20 16:00:00,
2013-12-20 09:01:00,14.6,6.6,29.66,North,350,5.0,12.0,70,0.00,,---,0.00,VWS V13.01,2013-12-20 16:01:00,
2013-12-20 09:06:00,17.3,7.9,29.66,WNW,289,13.0,23.0,66,0.00,,---,0.00,VWS V13.01,2013-12-20 16:06:00,
2013-12-20 09:12:00,18.7,6.8,29.66,West,280,5.0,23.0,59,0.00,,---,0.00,VWS V13.01,2013-12-20 16:12:00,
2013-12-20 09:17:00,19.7,6.6,29.65,West,263,13.0,23.0,56,0.00,,---,0.00,VWS V13.01,2013-12-20 16:17:00,
2013-12-20 09:22:00,20.6,7.0,29.65,WNW,292,3.0,23.0,55,0.00,,---,0.00,VWS V13.01,2013-12-20 16:22:00,
2013-12-20 09:27:00,21.0,7.8,29.66,WNW,288,5.0,23.0,56,0.00,,---,0.00,VWS V13.01,2013-12-20 16:27:00,
2013-12-20 09:30:00,23.8,7.0,29.64,WSW,248,7.0,24.0,48,0.00,,---,0.00,VWS V15.00,2013-12-20 16:30:00,
2013-12-20 09:32:00,21.4,7.3,29.65,WSW,248,12.0,19.0,54,0.00,,---,0.00,VWS V13.01,2013-12-20 16:32:00,
2013-12-20 09:37:00,21.6,7.5,29.65,West,270,17.0,19.0,54,0.00,,---,0.00,VWS V13.01,2013-12-20 16:37:00,
2013-12-20 09:42:00,21.8,7.7,29.65,WSW,258,9.0,19.0,54,0.00,,---,0.00,VWS V13.01,2013-12-20 16:42:00,
2013-12-20 09:47:00,22.0,7.5,29.65,West,269,9.0,19.0,53,0.00,,---,0.00,VWS V13.01,2013-12-20 16:47:00,
2013-12-20 09:52:00,22.2,7.3,29.65,West,260,7.0,19.0,52,0.00,,---,0.00,VWS V13.01,2013-12-20 16:52:00,
2013-12-20 09:57:00,22.5,7.5,29.65,WSW,249,7.0,19.0,52,0.00,,---,0.00,VWS V13.01,2013-12-20 16:57:00,
2013-12-20 10:00:00,24.8,7.0,29.64,West,269,14.0,18.0,46,0.00,,---,0.00,VWS V15.00,2013-12-20 17:00:00,
2013-12-20 10:02:00,22.8,7.8,29.65,WSW,240,12.0,22.0,52,0.00,,---,0.00,VWS V13.01,2013-12-20 17:02:00,
2013-12-20 10:07:00,23.0,8.0,29.65,SW,236,12.0,22.0,52,0.00,,---,0.00,VWS V13.01,2013-12-20 17:07:00,
2013-12-20 10:12:00,23.2,7.3,29.65,West,275,4.0,24.0,50,0.00,,---,0.00,VWS V13.01,2013-12-20 17:12:00,
2013-12-20 10:18:00,23.3,6.5,29.65,West,263,10.0,24.0,48,0.00,,---,0.00,VWS V13.01,2013-12-20 17:18:00,
2013-12-20 10:23:00,23.5,7.2,29.65,WSW,254,2.0,24.0,49,0.00,,---,0.00,VWS V13.01,2013-12-20 17:23:00,
2013-12-20 10:28:00,23.7,7.3,29.64,SW,234,10.0,24.0,49,0.00,,---,0.00,VWS V13.01,2013-12-20 17:28:00,
2013-12-20 10:30:00,25.8,6.9,29.63,West,276,12.0,20.0,44,0.00,,---,0.00,VWS V15.00,2013-12-20 17:30:00,
2013-12-20 10:33:00,24.0,7.2,29.64,WNW,297,8.0,18.0,48,0.00,,---,0.00,VWS V13.01,2013-12-20 17:33:00,
2013-12-20 10:38:00,24.1,6.8,29.64,West,275,12.0,18.0,47,0.00,,---,0.00,VWS V13.01,2013-12-20 17:38:00,
2013-12-20 10:43:00,24.2,5.9,29.64,SW,234,5.0,18.0,45,0.00,,---,0.00,VWS V13.01,2013-12-20 17:43:00,
2013-12-20 10:48:00,24.3,6.5,29.64,WSW,245,12.0,18.0,46,0.00,,---,0.00,VWS V13.01,2013-12-20 17:48:00,
2013-12-20 10:53:00,24.4,6.6,29.65,WNW,283,7.0,18.0,46,0.00,,---,0.00,VWS V13.01,2013-12-20 17:53:00,
2013-12-20 10:58:00,24.7,6.9,29.64,West,266,9.0,18.0,46,0.00,,---,0.00,VWS V13.01,2013-12-20 17:58:00,
2013-12-20 11:00:00,27.1,6.5,29.61,SW,226,8.0,25.0,41,0.00,,---,0.00,VWS V15.00,2013-12-20 18:00:00,
2013-12-20 11:03:00,24.9,6.6,29.64,WSW,245,10.0,14.0,45,0.00,,---,0.00,VWS V13.01,2013-12-20 18:03:00,
2013-12-20 11:08:00,25.1,6.8,29.64,WNW,282,9.0,14.0,45,0.00,,---,0.00,VWS V13.01,2013-12-20 18:08:00,
2013-12-20 11:13:00,25.3,6.4,29.64,West,280,12.0,20.0,44,0.00,,---,0.00,VWS V13.01,2013-12-20 18:13:00,
2013-12-20 11:18:00,25.4,7.0,29.63,West,280,10.0,20.0,45,0.00,,---,0.00,VWS V13.01,2013-12-20 18:18:00,
2013-12-20 11:23:00,25.6,7.2,29.64,SW,231,6.0,20.0,45,0.00,,---,0.00,VWS V13.01,2013-12-20 18:23:00,
2013-12-20 11:28:00,25.8,6.9,29.63,West,281,5.0,20.0,44,0.00,,---,0.00,VWS V13.01,2013-12-20 18:28:00,
2013-12-20 11:30:00,28.5,5.6,29.60,WSW,247,7.0,23.0,37,0.00,,---,0.00,VWS V15.00,2013-12-20 18:30:00,
2013-12-20 11:33:00,26.0,6.6,29.62,SW,217,7.0,15.0,43,0.00,,---,0.00,VWS V13.01,2013-12-20 18:33:00,
2013-12-20 11:38:00,26.0,6.6,29.62,WSW,252,14.0,19.0,43,0.00,,---,0.00,VWS V13.01,2013-12-20 18:38:00,
2013-12-20 11:44:00,26.3,6.9,29.62,WNW,283,14.0,19.0,43,0.00,,---,0.00,VWS V13.01,2013-12-20 18:44:00,
2013-12-20 11:49:00,26.6,6.1,29.62,WSW,242,3.0,21.0,41,0.00,,---,0.00,VWS V13.01,2013-12-20 18:49:00,
2013-12-20 11:54:00,26.8,6.3,29.62,West,272,11.0,21.0,41,0.00,,---,0.00,VWS V13.01,2013-12-20 18:54:00,
2013-12-20 11:59:00,27.1,6.5,29.61,West,269,6.0,25.0,41,0.00,,---,0.00,VWS V13.01,2013-12-20 18:59:00,
2013-12-20 12:00:00,29.3,6.9,29.59,WNW,285,7.0,18.0,38,0.00,,---,0.00,VWS V15.00,2013-12-20 19:00:00,
2013-12-20 12:04:00,27.3,5.6,29.61,SW,220,14.0,18.0,39,0.00,,---,0.00,VWS V13.01,2013-12-20 19:04:00,
2013-12-20 12:09:00,27.5,6.4,29.61,SW,218,11.0,18.0,40,0.00,,---,0.00,VWS V13.01,2013-12-20 19:09:00,
2013-12-20 12:14:00,27.7,6.0,29.61,WSW,254,13.0,23.0,39,0.00,,---,0.00,VWS V13.01,2013-12-20 19:14:00,
2013-12-20 12:19:00,27.9,6.2,29.60,West,260,10.0,23.0,39,0.00,,---,0.00,VWS V13.01,2013-12-20 19:19:00,
2013-12-20 12:24:00,28.2,6.4,29.60,South,187,5.0,23.0,39,0.00,,---,0.00,VWS V13.01,2013-12-20 19:24:00,
2013-12-20 12:29:00,28.4,6.1,29.60,SW,236,7.0,23.0,38,0.00,,---,0.00,VWS V13.01,2013-12-20 19:29:00,
2013-12-20 12:30:00,29.9,6.8,29.57,West,272,11.0,20.0,37,0.00,,---,0.00,VWS V15.00,2013-12-20 19:30:00,
2013-12-20 12:34:00,28.5,6.1,29.60,WSW,239,14.0,15.0,38,0.00,,---,0.00,VWS V13.01,2013-12-20 19:34:00,
2013-12-20 12:35:00,28.6,5.6,29.60,SSW,195,10.0,15.0,37,0.00,,---,0.00,VWS V13.01,2013-12-20 19:35:00,
2013-12-20 12:40:00,28.9,6.5,29.60,WSW,255,18.0,18.0,38,0.00,,---,0.00,VWS V13.01,2013-12-20 19:40:00,
2013-12-20 12:45:00,29.0,6.6,29.59,West,264,7.0,18.0,38,0.00,,---,0.00,VWS V13.01,2013-12-20 19:45:00,
2013-12-20 12:50:00,29.1,6.7,29.59,West,267,8.0,18.0,38,0.00,,---,0.00,VWS V13.01,2013-12-20 19:50:00,
2013-12-20 12:55:00,29.2,7.9,29.59,West,277,6.0,18.0,40,0.00,,---,0.00,VWS V13.01,2013-12-20 19:55:00,
2013-12-20 13:00:00,29.4,6.9,29.58,West,271,5.0,15.0,38,0.00,,---,0.00,VWS V13.01,2013-12-20 20:00:00,
2013-12-20 13:05:00,29.4,6.4,29.58,NNW,335,3.0,16.0,37,0.00,,---,0.00,VWS V13.01,2013-12-20 20:05:00,
2013-12-20 13:10:00,29.5,6.4,29.58,WNW,298,8.0,16.0,37,0.00,,---,0.00,VWS V13.01,2013-12-20 20:10:00,
2013-12-20 13:15:00,29.6,6.5,29.58,WNW,302,12.0,16.0,37,0.00,,---,0.00,VWS V13.01,2013-12-20 20:15:00,
2013-12-20 13:21:00,29.6,6.5,29.57,West,263,9.0,20.0,37,0.00,,---,0.00,VWS V13.01,2013-12-20 20:21:00,
2013-12-20 13:26:00,29.8,7.3,29.57,West,273,13.0,20.0,38,0.00,,---,0.00,VWS V13.01,2013-12-20 20:26:00,
2013-12-20 13:30:00,29.4,7.5,29.58,West,259,12.0,18.0,39,0.00,,---,0.00,VWS V15.00,2013-12-20 20:30:00,
2013-12-20 13:31:00,29.9,7.4,29.57,WSW,238,7.0,11.0,38,0.00,,---,0.00,VWS V13.01,2013-12-20 20:31:00,
2013-12-20 13:36:00,29.9,6.8,29.58,WSW,248,8.0,14.0,37,0.00,,---,0.00,VWS V13.01,2013-12-20 20:36:00,
2013-12-20 13:41:00,29.8,6.7,29.58,West,264,10.0,14.0,37,0.00,,---,0.00,VWS V13.01,2013-12-20 20:41:00,
2013-12-20 13:46:00,29.9,7.4,29.58,SW,231,10.0,16.0,38,0.00,,---,0.00,VWS V13.01,2013-12-20 20:46:00,
2013-12-20 13:51:00,29.9,6.8,29.58,West,266,14.0,19.0,37,0.00,,---,0.00,VWS V13.01,2013-12-20 20:51:00,
2013-12-20 13:56:00,29.8,7.3,29.58,WSW,237,17.0,19.0,38,0.00,,---,0.00,VWS V13.01,2013-12-20 20:56:00,
2013-12-20 14:00:00,29.2,7.3,29.57,WNW,298,9.0,24.0,39,0.00,,---,0.00,VWS V15.00,2013-12-20 21:00:00,
2013-12-20 14:01:00,29.8,7.9,29.58,WSW,258,7.0,13.0,39,0.00,,---,0.00,VWS V13.01,2013-12-20 21:01:00,
2013-12-20 14:06:00,29.7,7.2,29.57,SSW,210,5.0,18.0,38,0.00,,---,0.00,VWS V13.01,2013-12-20 21:06:00,
2013-12-20 14:11:00,29.6,7.7,29.57,WSW,258,12.0,18.0,39,0.00,,---,0.00,VWS V13.01,2013-12-20 21:11:00,
2013-12-20 14:16:00,29.6,7.7,29.58,SW,235,9.0,18.0,39,0.00,,---,0.00,VWS V13.01,2013-12-20 21:16:00,
2013-12-20 14:21:00,29.5,7.6,29.57,WSW,257,6.0,18.0,39,0.00,,---,0.00,VWS V13.01,2013-12-20 21:21:00,
2013-12-20 14:26:00,29.4,7.5,29.57,WSW,255,4.0,18.0,39,0.00,,---,0.00,VWS V13.01,2013-12-20 21:26:00,
2013-12-20 14:30:00,29.0,7.2,29.56,WSW,245,6.0,20.0,39,0.00,,---,0.00,VWS V15.00,2013-12-20 21:30:00,
2013-12-20 14:31:00,29.5,7.6,29.57,WSW,243,14.0,15.0,39,0.00,,---,0.00,VWS V13.01,2013-12-20 21:31:00,
2013-12-20 14:36:00,29.5,7.6,29.58,NW,320,8.0,24.0,39,0.00,,---,0.00,VWS V13.01,2013-12-20 21:36:00,
2013-12-20 14:41:00,29.4,8.1,29.58,West,263,7.0,24.0,40,0.00,,---,0.00,VWS V13.01,2013-12-20 21:41:00,
2013-12-20 14:46:00,29.5,7.6,29.57,WSW,250,11.0,24.0,39,0.00,,---,0.00,VWS V13.01,2013-12-20 21:46:00,
2013-12-20 14:52:00,29.4,7.5,29.56,West,269,8.0,24.0,39,0.00,,---,0.00,VWS V13.01,2013-12-20 21:52:00,
2013-12-20 14:57:00,29.3,7.4,29.56,WSW,237,11.0,24.0,39,0.00,,---,0.00,VWS V13.01,2013-12-20 21:57:00,
2013-12-20 15:00:00,28.0,6.3,29.56,West,264,11.0,18.0,39,0.00,,---,0.00,VWS V15.00,2013-12-20 22:00:00,
2013-12-20 15:02:00,29.2,7.3,29.56,WSW,252,20.0,20.0,39,0.00,,---,0.00,VWS V13.01,2013-12-20 22:02:00,
2013-12-20 15:07:00,29.5,7.6,29.56,WSW,250,9.0,20.0,39,0.00,,---,0.00,VWS V13.01,2013-12-20 22:07:00,
2013-12-20 15:12:00,29.7,7.2,29.55,SW,224,12.0,20.0,38,0.00,,---,0.00,VWS V13.01,2013-12-20 22:12:00,
2013-12-20 15:17:00,29.7,7.2,29.56,West,279,6.0,20.0,38,0.00,,---,0.00,VWS V13.01,2013-12-20 22:17:00,
2013-12-20 15:22:00,29.5,7.6,29.56,WSW,256,11.0,20.0,39,0.00,,---,0.00,VWS V13.01,2013-12-20 22:22:00,
2013-12-20 15:27:00,29.1,6.7,29.56,West,262,10.0,20.0,38,0.00,,---,0.00,VWS V13.01,2013-12-20 22:27:00,
2013-12-20 15:30:00,27.7,6.0,29.56,WSW,257,11.0,17.0,39,0.00,,---,0.00,VWS V15.00,2013-12-20 22:30:00,
2013-12-20 15:32:00,28.9,7.1,29.56,WSW,247,9.0,17.0,39,0.00,,---,0.00,VWS V13.01,2013-12-20 22:32:00,
2013-12-20 15:37:00,28.6,6.8,29.56,WNW,300,6.0,17.0,39,0.00,,---,0.00,VWS V13.01,2013-12-20 22:37:00,
2013-12-20 15:42:00,28.2,6.4,29.56,West,265,9.0,17.0,39,0.00,,---,0.00,VWS V13.01,2013-12-20 22:42:00,
2013-12-20 15:47:00,28.1,6.9,29.56,NW,323,7.0,17.0,40,0.00,,---,0.00,VWS V13.01,2013-12-20 22:47:00,
2013-12-20 15:52:00,28.0,6.3,29.56,WSW,257,8.0,17.0,39,0.00,,---,0.00,VWS V13.01,2013-12-20 22:52:00,
2013-12-20 15:58:00,28.0,6.3,29.56,West,271,9.0,17.0,39,0.00,,---,0.00,VWS V13.01,2013-12-20 22:58:00,
2013-12-20 16:00:00,27.3,7.2,29.55,SSW,200,9.0,24.0,42,0.00,,---,0.00,VWS V15.00,2013-12-20 23:00:00,
2013-12-20 16:03:00,28.0,6.3,29.57,WSW,251,5.0,14.0,39,0.00,,---,0.00,VWS V13.01,2013-12-20 23:03:00,
2013-12-20 16:08:00,28.0,6.3,29.56,WSW,256,11.0,14.0,39,0.00,,---,0.00,VWS V13.01,2013-12-20 23:08:00,
2013-12-20 16:13:00,27.9,6.2,29.55,SW,233,10.0,17.0,39,0.00,,---,0.00,VWS V13.01,2013-12-20 23:13:00,
2013-12-20 16:18:00,27.9,6.2,29.56,West,264,8.0,17.0,39,0.00,,---,0.00,VWS V13.01,2013-12-20 23:18:00,
2013-12-20 16:23:00,27.8,6.1,29.56,West,264,7.0,17.0,39,0.00,,---,0.00,VWS V13.01,2013-12-20 23:23:00,
2013-12-20 16:28:00,27.7,6.5,29.55,SW,228,15.0,17.0,40,0.00,,---,0.00,VWS V13.01,2013-12-20 23:28:00,
2013-12-20 16:30:00,27.1,7.1,29.54,WSW,245,6.0,20.0,42,0.00,,---,0.00,VWS V15.00,2013-12-20 23:30:00,
2013-12-20 16:33:00,27.6,6.4,29.55,SSW,192,5.0,24.0,40,0.00,,---,0.00,VWS V13.01,2013-12-20 23:33:00,
2013-12-20 16:38:00,27.5,6.4,29.55,WNW,282,5.0,24.0,40,0.00,,---,0.00,VWS V13.01,2013-12-20 23:38:00,
2013-12-20 16:43:00,27.6,6.4,29.54,WSW,248,13.0,24.0,40,0.00,,---,0.00,VWS V13.01,2013-12-20 23:43:00,
2013-12-20 16:48:00,27.4,6.8,29.56,SSW,205,7.0,24.0,41,0.00,,---,0.00,VWS V13.01,2013-12-20 23:48:00,
2013-12-20 16:53:00,27.4,6.8,29.54,SW,229,16.0,24.0,41,0.00,,---,0.00,VWS V13.01,2013-12-20 23:53:00,
2013-12-20 16:58:00,27.3,7.2,29.55,SW,223,7.0,24.0,42,0.00,,---,0.00,VWS V13.01,2013-12-20 23:58:00,
2013-12-20 17:00:00,27.3,7.8,29.53,WSW,257,5.0,16.0,43,0.00,,---,0.00,VWS V15.00,2013-12-21 00:00:00,
2013-12-20 17:03:00,27.2,6.6,29.54,West,279,7.0,20.0,41,0.00,,---,0.00,VWS V13.01,2013-12-21 00:03:00,
2013-12-20 17:08:00,27.3,6.7,29.54,South,184,6.0,20.0,41,0.00,,---,0.00,VWS V13.01,2013-12-21 00:08:00,
2013-12-20 17:13:00,27.3,6.7,29.53,West,271,7.0,20.0,41,0.00,,---,0.00,VWS V13.01,2013-12-21 00:13:00,
2013-12-20 17:19:00,27.2,7.2,29.53,West,276,5.0,20.0,42,0.00,,---,0.00,VWS V13.01,2013-12-21 00:19:00,
2013-12-20 17:24:00,27.2,7.2,29.54,WNW,291,7.0,20.0,42,0.00,,---,0.00,VWS V13.01,2013-12-21 00:24:00,
2013-12-20 17:29:00,27.1,7.1,29.54,WSW,250,8.0,20.0,42,0.00,,---,0.00,VWS V13.01,2013-12-21 00:29:00,
2013-12-20 17:30:00,27.9,7.8,29.52,West,263,11.0,11.0,42,0.00,,---,0.00,VWS V15.00,2013-12-21 00:30:00,
2013-12-20 17:34:00,27.1,8.1,29.53,WSW,254,5.0,13.0,44,0.00,,---,0.00,VWS V13.01,2013-12-21 00:34:00,
2013-12-20 17:39:00,27.0,8.0,29.53,WSW,244,12.0,16.0,44,0.00,,---,0.00,VWS V13.01,2013-12-21 00:39:00,
2013-12-20 17:44:00,27.2,7.7,29.53,WSW,256,10.0,16.0,43,0.00,,---,0.00,VWS V13.01,2013-12-21 00:44:00,
2013-12-20 17:49:00,27.3,7.8,29.53,WSW,255,10.0,16.0,43,0.00,,---,0.00,VWS V13.01,2013-12-21 00:49:00,
2013-12-20 17:54:00,27.3,8.3,29.53,West,261,5.0,16.0,44,0.00,,---,0.00,VWS V13.01,2013-12-21 00:54:00,
2013-12-20 17:59:00,27.3,7.8,29.53,WNW,283,5.0,5.0,43,0.00,,---,0.00,VWS V13.01,2013-12-21 00:59:00,
2013-12-20 18:00:00,27.8,8.7,29.52,SSW,204,5.0,19.0,44,0.00,,---,0.00,VWS V15.00,2013-12-21 01:00:00,
2013-12-20 18:04:00,27.4,7.9,29.53,WNW,293,3.0,11.0,43,0.00,,---,0.00,VWS V13.01,2013-12-21 01:04:00,
2013-12-20 18:09:00,27.5,7.9,29.53,West,260,6.0,11.0,43,0.00,,---,0.00,VWS V13.01,2013-12-21 01:09:00,
2013-12-20 18:14:00,27.6,8.0,29.54,West,260,0.0,11.0,43,0.00,,---,0.00,VWS V13.01,2013-12-21 01:14:00,
2013-12-20 18:19:00,27.6,8.0,29.53,WSW,251,5.0,11.0,43,0.00,,---,0.00,VWS V13.01,2013-12-21 01:19:00,
2013-12-20 18:24:00,27.7,8.1,29.53,WSW,250,10.0,11.0,43,0.00,,---,0.00,VWS V13.01,2013-12-21 01:24:00,
2013-12-20 18:29:00,27.9,8.3,29.53,WSW,240,10.0,11.0,43,0.00,,---,0.00,VWS V13.01,2013-12-21 01:29:00,
2013-12-20 18:30:00,25.5,8.1,29.53,SSW,197,1.0,9.0,47,0.00,,---,0.00,VWS V15.00,2013-12-21 01:30:00,
2013-12-20 18:34:00,28.0,8.4,29.53,SW,235,9.0,13.0,43,0.00,,---,0.00,VWS V13.01,2013-12-21 01:34:00,
2013-12-20 18:40:00,28.0,8.4,29.53,SSW,209,7.0,18.0,43,0.00,,---,0.00,VWS V13.01,2013-12-21 01:40:00,
2013-12-20 18:45:00,28.0,7.9,29.52,SW,230,13.0,18.0,42,0.00,,---,0.00,VWS V13.01,2013-12-21 01:45:00,
2013-12-20 18:50:00,28.0,7.9,29.51,SW,216,8.0,18.0,42,0.00,,---,0.00,VWS V13.01,2013-12-21 01:50:00,
2013-12-20 18:55:00,28.0,7.9,29.52,SSW,203,8.0,19.0,42,0.00,,---,0.00,VWS V13.01,2013-12-21 01:55:00,
2013-12-20 19:00:00,27.8,8.7,29.53,SSW,204,4.0,19.0,44,0.00,,---,0.00,VWS V13.01,2013-12-21 02:00:00,
2013-12-20 19:05:00,27.5,9.0,29.52,South,172,2.0,7.0,45,0.00,,---,0.00,VWS V13.01,2013-12-21 02:05:00,
2013-12-20 19:10:00,27.0,9.0,29.52,South,174,6.0,8.0,46,0.00,,---,0.00,VWS V13.01,2013-12-21 02:10:00,
2013-12-20 19:15:00,26.5,9.0,29.52,SSW,212,3.0,9.0,47,0.00,,---,0.00,VWS V13.01,2013-12-21 02:15:00,
2013-12-20 19:20:00,26.1,8.6,29.52,SW,219,3.0,9.0,47,0.00,,---,0.00,VWS V13.01,2013-12-21 02:20:00,
2013-12-20 19:25:00,25.8,7.9,29.52,SSE,160,3.0,9.0,46,0.00,,---,0.00,VWS V13.01,2013-12-21 02:25:00,
2013-12-20 19:30:00,25.5,8.1,29.53,South,191,3.0,3.0,47,0.00,,---,0.00,VWS V13.01,2013-12-21 02:30:00,
2013-12-20 19:35:00,25.0,7.6,29.52,SSE,162,2.0,4.0,47,0.00,,---,0.00,VWS V13.01,2013-12-21 02:35:00,
2013-12-20 19:40:00,24.6,7.3,29.52,South,182,2.0,5.0,47,0.00,,---,0.00,VWS V13.01,2013-12-21 02:40:00,
2013-12-20 19:45:00,24.3,7.4,29.52,SSW,192,3.0,6.0,48,0.00,,---,0.00,VWS V13.01,2013-12-21 02:45:00,
2013-12-20 19:50:00,24.0,6.7,29.52,SE,128,5.0,6.0,47,0.00,,---,0.00,VWS V13.01,2013-12-21 02:50:00,
2013-12-20 19:55:00,24.0,7.2,29.52,SW,222,3.0,6.0,48,0.00,,---,0.00,VWS V13.01,2013-12-21 02:55:00,
2013-12-20 20:00:00,27.0,7.5,29.51,West,263,12.0,23.0,43,0.00,,---,0.00,VWS V15.00,2013-12-21 03:00:00,
2013-12-20 20:01:00,24.2,6.9,29.53,SW,223,8.0,10.0,47,0.00,,---,0.00,VWS V13.01,2013-12-21 03:01:00,
2013-12-20 20:06:00,25.1,7.2,29.52,WSW,249,6.0,15.0,46,0.00,,---,0.00,VWS V13.01,2013-12-21 03:06:00,
2013-12-20 20:11:00,25.9,7.5,29.52,SW,228,11.0,15.0,45,0.00,,---,0.00,VWS V13.01,2013-12-21 03:11:00,
2013-12-20 20:16:00,26.4,7.9,29.52,WSW,244,9.0,19.0,45,0.00,,---,0.00,VWS V13.01,2013-12-21 03:16:00,
2013-12-20 20:21:00,26.6,7.6,29.52,WSW,256,6.0,19.0,44,0.00,,---,0.00,VWS V13.01,2013-12-21 03:21:00,
2013-12-20 20:26:00,26.8,7.8,29.52,WSW,248,9.0,19.0,44,0.00,,---,0.00,VWS V13.01,2013-12-21 03:26:00,
2013-12-20 20:30:00,26.4,7.5,29.51,West,259,5.0,24.0,44,0.00,,---,0.00,VWS V15.00,2013-12-21 03:30:00,
2013-12-20 20:31:00,26.8,7.8,29.52,SSW,212,5.0,11.0,44,0.00,,---,0.00,VWS V13.01,2013-12-21 03:31:00,
2013-12-20 20:36:00,27.0,7.5,29.52,WSW,241,7.0,12.0,43,0.00,,---,0.00,VWS V13.01,2013-12-21 03:36:00,
2013-12-20 20:41:00,27.1,7.1,29.52,WSW,240,15.0,15.0,42,0.00,,---,0.00,VWS V13.01,2013-12-21 03:41:00,
2013-12-20 20:46:00,27.1,7.1,29.51,WSW,245,12.0,20.0,42,0.00,,---,0.00,VWS V13.01,2013-12-21 03:46:00,
2013-12-20 20:51:00,27.1,7.1,29.50,WSW,243,19.0,20.0,42,0.00,,---,0.00,VWS V13.01,2013-12-21 03:51:00,
2013-12-20 20:56:00,27.0,7.0,29.50,WSW,245,9.0,23.0,42,0.00,,---,0.00,VWS V13.01,2013-12-21 03:56:00,
2013-12-20 21:00:00,25.7,7.3,29.51,SW,223,8.0,12.0,45,0.00,,---,0.00,VWS V15.00,2013-12-21 04:00:00,
2013-12-20 21:02:00,26.9,7.4,29.52,WSW,241,16.0,24.0,43,0.00,,---,0.00,VWS V13.01,2013-12-21 04:02:00,
2013-12-20 21:07:00,26.9,7.4,29.51,SW,229,20.0,24.0,43,0.00,,---,0.00,VWS V13.01,2013-12-21 04:07:00,
2013-12-20 21:12:00,26.8,7.8,29.52,West,266,9.0,24.0,44,0.00,,---,0.00,VWS V13.01,2013-12-21 04:12:00,
2013-12-20 21:17:00,26.6,7.6,29.51,WSW,244,9.0,24.0,44,0.00,,---,0.00,VWS V13.01,2013-12-21 04:17:00,
2013-12-20 21:22:00,26.5,7.6,29.52,West,276,9.0,24.0,44,0.00,,---,0.00,VWS V13.01,2013-12-21 04:22:00,
2013-12-20 21:27:00,26.4,7.5,29.51,WSW,249,8.0,24.0,44,0.00,,---,0.00,VWS V13.01,2013-12-21 04:27:00,
2013-12-20 21:30:00,25.5,6.6,29.51,WSW,243,6.0,15.0,44,0.00,,---,0.00,VWS V15.00,2013-12-21 04:30:00,
2013-12-20 21:32:00,26.3,7.4,29.51,West,280,4.0,9.0,44,0.00,,---,0.00,VWS V13.01,2013-12-21 04:32:00,
2013-12-20 21:37:00,26.1,7.2,29.51,West,274,2.0,12.0,44,0.00,,---,0.00,VWS V13.01,2013-12-21 04:37:00,
2013-12-20 21:42:00,26.1,7.2,29.51,SW,234,9.0,12.0,44,0.00,,---,0.00,VWS V13.01,2013-12-21 04:42:00,
2013-12-20 21:47:00,25.9,7.5,29.51,West,262,5.0,12.0,45,0.00,,---,0.00,VWS V13.01,2013-12-21 04:47:00,
2013-12-20 21:52:00,25.8,7.4,29.51,West,262,3.0,12.0,45,0.00,,---,0.00,VWS V13.01,2013-12-21 04:52:00,
2013-12-20 21:57:00,25.7,7.8,29.51,SW,233,7.0,12.0,46,0.00,,---,0.00,VWS V13.01,2013-12-21 04:57:00,
2013-12-20 22:00:00,26.2,6.2,29.49,WSW,255,5.0,14.0,42,0.00,,---,0.00,VWS V15.00,2013-12-21 05:00:00,
2013-12-20 22:01:00,25.7,7.3,29.52,SW,232,5.0,11.0,45,0.00,,---,0.00,VWS V13.01,2013-12-21 05:01:00,
2013-12-20 22:02:00,25.7,7.3,29.51,SW,221,11.0,11.0,45,0.00,,---,0.00,VWS V13.01,2013-12-21 05:02:00,
2013-12-20 22:03:00,25.7,7.3,29.50,SW,224,15.0,15.0,45,0.00,,---,0.00,VWS V13.01,2013-12-21 05:03:00,
2013-12-20 22:05:00,25.7,7.3,29.51,SW,220,9.0,15.0,45,0.00,,---,0.00,VWS V13.01,2013-12-21 05:05:00,
2013-12-20 22:10:00,25.8,7.4,29.51,SW,227,12.0,15.0,45,0.00,,---,0.00,VWS V13.01,2013-12-21 05:10:00,
2013-12-20 22:15:00,25.8,7.4,29.51,WSW,243,8.0,15.0,45,0.00,,---,0.00,VWS V13.01,2013-12-21 05:15:00,
2013-12-20 22:21:00,25.6,7.2,29.52,West,259,5.0,15.0,45,0.00,,---,0.00,VWS V13.01,2013-12-21 05:21:00,
2013-12-20 22:26:00,25.5,7.1,29.51,SW,227,10.0,15.0,45,0.00,,---,0.00,VWS V13.01,2013-12-21 05:26:00,
2013-12-20 22:30:00,25.7,6.3,29.50,WSW,248,20.0,23.0,43,0.00,,---,0.00,VWS V15.00,2013-12-21 05:30:00,
2013-12-20 22:31:00,25.5,6.6,29.51,SW,231,7.0,7.0,44,0.00,,---,0.00,VWS V13.01,2013-12-21 05:31:00,
2013-12-20 22:36:00,25.5,6.6,29.50,WSW,240,9.0,9.0,44,0.00,,---,0.00,VWS V13.01,2013-12-21 05:36:00,
2013-12-20 22:41:00,25.7,6.8,29.51,WSW,252,9.0,14.0,44,0.00,,---,0.00,VWS V13.01,2013-12-21 05:41:00,
2013-12-20 22:46:00,26.0,6.6,29.51,West,275,6.0,14.0,43,0.00,,---,0.00,VWS V13.01,2013-12-21 05:46:00,
2013-12-20 22:51:00,26.2,6.2,29.51,West,269,8.0,14.0,42,0.00,,---,0.00,VWS V13.01,2013-12-21 05:51:00,
2013-12-20 22:56:00,26.3,6.3,29.50,WNW,286,2.0,14.0,42,0.00,,---,0.00,VWS V13.01,2013-12-21 05:56:00,
2013-12-20 23:00:00,25.7,6.3,29.50,WSW,248,10.0,24.0,43,0.00,,---,0.00,VWS V15.00,2013-12-21 06:00:00,
2013-12-20 23:01:00,26.1,6.7,29.50,WNW,282,6.0,10.0,43,0.00,,---,0.00,VWS V13.01,2013-12-21 06:01:00,
2013-12-20 23:06:00,26.0,6.6,29.50,West,273,3.0,11.0,43,0.00,,---,0.00,VWS V13.01,2013-12-21 06:06:00,
2013-12-20 23:11:00,26.0,6.1,29.50,SW,229,6.0,12.0,42,0.00,,---,0.00,VWS V13.01,2013-12-21 06:11:00,
2013-12-20 23:18:00,26.0,6.6,29.49,WSW,253,8.0,8.0,43,0.00,,---,0.00,VWS V13.01,2013-12-21 06:18:00,
2013-12-20 23:23:00,25.8,6.4,29.50,WSW,247,8.0,22.0,43,0.00,,---,0.00,VWS V13.01,2013-12-21 06:23:00,
2013-12-20 23:28:00,25.7,6.3,29.50,West,273,8.0,22.0,43,0.00,,---,0.00,VWS V13.01,2013-12-21 06:28:00,
2013-12-20 23:30:00,25.8,4.8,29.48,WSW,248,11.0,30.0,40,0.00,,---,0.00,VWS V15.00,2013-12-21 06:30:00,
2013-12-20 23:33:00,25.7,6.3,29.49,SW,230,12.0,23.0,43,0.00,,---,0.00,VWS V13.01,2013-12-21 06:33:00,
2013-12-20 23:38:00,25.8,6.4,29.49,WSW,239,8.0,23.0,43,0.00,,---,0.00,VWS V13.01,2013-12-21 06:38:00,